Pittsburgh, PA

9:26 AM EST on February 24, 2018 (GMT -0500)
Pittsburgh International

Weather History for KPIT - September, 2014

Change the Weather History Date:

Sunday, September 7, 2014

  Actual Average Record
Temperature  
Mean Temperature 64 °F 68 °F  
Max Temperature 75 °F 78 °F 100 °F (1881)
Min Temperature 52 °F 57 °F 41 °F (1988)
Degree Days  
Heating Degree Days 1 1  
Month to date heating degree days 1 7  
Since 1 July heating degree days 22 20  
Cooling Degree Days 0 4  
Month to date cooling degree days 49 31  
Year to date cooling degree days 670 683  
Growing Degree Days 14 (Base 50)    
Moisture  
Dew Point 52 °F    
Average Humidity 67    
Maximum Humidity 93    
Minimum Humidity 41    
Precipitation  
Precipitation 0.00 in 0.10 in 1.95 in (1990)
Month to date precipitation 0.23 0.76  
Year to date precipitation 29.61 27.47  
Snow  
Snow 0.00 in 0.00 in 0.00 in (2002)
Month to date snowfall 0.0 0.0  
Since 1 July snowfall 0.0 0.0  
Snow Depth 0.00 in    
Sea Level Pressure  
Sea Level Pressure 30.20 in    
Wind  
Wind Speed 4 mph (NNE)    
Max Wind Speed 13 mph    
Max Gust Speed 16 mph    
Visibility 10 miles    
Events      
T = Trace of Precipitation, MM = Missing Value Source: NWS Daily Summary

Daily Weather History Graph

Daily Weather History Graph

Search for Another Location

Airport or City:

Trip Planner

Search our weather history database for the weather conditions in past years. The results will help you decide how hot, cold, wet, or windy it might be!

Date:

Astronomy

Sep. 07, 2014 Rise Set
Actual Time 6:53 AM EDT 7:43 PM EDT
Civil Twilight 6:26 AM EDT 8:10 PM EDT
Nautical Twilight 5:53 AM EDT 8:43 PM EDT
Astronomical Twilight 5:19 AM EDT 9:17 PM EDT
Moon 6:41 PM EDT (9/7) 5:04 AM EDT (9/7)
Length of Visible Light 13h 44m
Length of Day
12h 49m
Waxing Gibbous, 97% of the Moon is Illuminated
Sep 7
Waxing Gibbous
Sep 8
Full
Sep 15
Last Quarter
Sep 24
New
Oct 1
First Quarter

Hourly Weather History & Observations

Time (EDT) Temp. Dew Point Humidity Pressure Visibility Wind Dir Wind Speed Gust Speed Precip Events Conditions
1:51 AM 57.9 °F 53.1 °F 84% 30.14 in 10.0 mi NNW 6.9 mph - N/A   Partly Cloudy
2:51 AM 55.9 °F 52.0 °F 87% 30.14 in 10.0 mi NNW 4.6 mph - N/A   Partly Cloudy
3:51 AM 54.0 °F 52.0 °F 93% 30.15 in 10.0 mi NW 4.6 mph - N/A   Partly Cloudy
4:51 AM 55.0 °F 52.0 °F 89% 30.16 in 10.0 mi North 5.8 mph - N/A   Clear
5:51 AM 54.0 °F 52.0 °F 93% 30.18 in 10.0 mi North 5.8 mph - N/A   Clear
6:51 AM 53.1 °F 51.1 °F 93% 30.19 in 10.0 mi Calm Calm - N/A   Partly Cloudy
7:51 AM 54.0 °F 52.0 °F 93% 30.22 in 10.0 mi Calm Calm - N/A   Partly Cloudy
8:51 AM 57.2 °F 53.6 °F 88% 30.21 in 10.0 mi Calm Calm - N/A   Partly Cloudy
9:51 AM 62.1 °F 53.1 °F 72% 30.24 in 10.0 mi East 3.5 mph - N/A   Partly Cloudy
10:51 AM 66.0 °F 51.1 °F 59% 30.24 in 10.0 mi Variable 4.6 mph - N/A   Partly Cloudy
11:51 AM 69.1 °F 51.1 °F 53% 30.25 in 10.0 mi NNE 5.8 mph - N/A   Scattered Clouds
12:51 PM 69.1 °F 50.0 °F 51% 30.24 in 10.0 mi Calm Calm - N/A   Mostly Cloudy
1:51 PM 71.1 °F 51.1 °F 49% 30.22 in 10.0 mi North 5.8 mph - N/A   Mostly Cloudy
2:51 PM 71.1 °F 51.1 °F 49% 30.22 in 10.0 mi NE 5.8 mph - N/A   Scattered Clouds
3:51 PM 73.0 °F 48.9 °F 42% 30.20 in 10.0 mi North 4.6 mph - N/A   Scattered Clouds
4:51 PM 73.4 °F 50.0 °F 44% 30.17 in 10.0 mi North 8.1 mph - N/A   Partly Cloudy
5:51 PM 73.0 °F 50.0 °F 44% 30.18 in 10.0 mi NE 8.1 mph - N/A   Partly Cloudy
6:51 PM 72.0 °F 50.0 °F 46% 30.18 in 10.0 mi NNE 8.1 mph - N/A   Partly Cloudy
7:51 PM 69.1 °F 51.1 °F 53% 30.18 in 10.0 mi NE 4.6 mph - N/A   Partly Cloudy
8:51 PM 64.9 °F 53.1 °F 65% 30.20 in 10.0 mi ENE 3.5 mph - N/A   Partly Cloudy
9:51 PM 62.1 °F 54.0 °F 75% 30.21 in 10.0 mi Calm Calm - N/A   Partly Cloudy
10:51 PM 62.6 °F 53.6 °F 72% 30.20 in 10.0 mi Calm Calm - N/A   Clear
11:51 PM 60.1 °F 54.0 °F 80% 30.21 in 10.0 mi Calm Calm - N/A   Clear